全部
Dax-Seyresse Airport LFBY 天氣
|
(LFBY)
晴天
微風 |
|
13 °C |
LFBY終端機場天氣預報
| Date | Time (CEST) | Flight Rules | Wind Dir. | Speed | Type | Height AGL (ft) | Visibility | Remarks | ||||||
|---|---|---|---|---|---|---|---|---|---|---|---|---|---|---|
LFBY近期METAR歷史資料
| Date | Time (CEST) | Flight Rules | Wind Dir. | Speed | Type | Height AGL (ft) | Visibility | Temp (°C) | Temp (°F) | Dew Point (°C) | Dew Point (°F) | Rel. Humid. | Pressure | Density Altitude | Remarks |
|---|---|---|---|---|---|---|---|---|---|---|---|---|---|---|---|
| 04-五月 | 22:00 | VFR | 240° | 4 kt | 10000 meters | 13° | 55° | 12° | 53° | 94% | 1014 mb | -155 ft | |||
| 04-五月 | 21:30 | VFR | 250° | 3 kt | 10000 meters | 13° | 55° | 12° | 53° | 94% | 1014 mb | -155 ft | |||
| 04-五月 | 21:00 | VFR | Variable | 3 kt | 10000 meters | 13° | 55° | 12° | 53° | 94% | 1013 mb | -126 ft | |||
| 04-五月 | 20:30 | VFR | 280° | 6 kt | 10000 meters | 14° | 57° | 12° | 53° | 88% | 1013 mb | -6 ft | |||
| 04-五月 | 20:00 | VFR | 270° | 3 kt | 10000 meters | 15° | 59° | 12° | 53° | 82% | 1013 mb | 114 ft | |||
| 04-五月 | 19:30 | VFR | 300° | 3 kt | 10000 meters | 15° | 59° | 12° | 53° | 82% | 1013 mb | 114 ft | |||
| 04-五月 | 19:00 | VFR | Variable | 2 kt | 10000 meters | 15° | 59° | 13° | 55° | 88% | 1013 mb | 114 ft | |||
| 04-五月 | 18:30 | VFR | 290° | 3 kt | 10000 meters | 14° | 57° | 12° | 53° | 88% | 1013 mb | -6 ft | |||
| 04-五月 | 18:00 | VFR | 280° | 4 kt | 10000 meters | 14° | 57° | 13° | 55° | 94% | 1013 mb | -6 ft | |||
| 04-五月 | 17:30 | VFR | 290° | 3 kt | 10000 meters | 14° | 57° | 12° | 53° | 88% | 1013 mb | -6 ft | |||
| 04-五月 | 17:00 | VFR | 270° | 6 kt | 10000 meters | 14° | 57° | 12° | 53° | 88% | 1013 mb | -6 ft | |||
| 04-五月 | 16:30 | VFR | 300° | 5 kt | 10000 meters | 14° | 57° | 12° | 53° | 88% | 1013 mb | -6 ft | |||
| 04-五月 | 16:00 | VFR | 310° | 7 kt | 10000 meters | 15° | 59° | 12° | 53° | 82% | 1013 mb | 114 ft | |||
| 04-五月 | 15:30 | VFR | 310° | 8 kt | 10000 meters | 15° | 59° | 12° | 53° | 82% | 1013 mb | 114 ft | |||
| 04-五月 | 15:00 | VFR | 300° | 9 kt | 10000 meters | 15° | 59° | 12° | 53° | 82% | 1013 mb | 114 ft | |||
| 04-五月 | 14:30 | VFR | 280° | 9 kt | 10000 meters |
15° | 59° | 14° | 57° | 94% | 1013 mb | 114 ft | |||
| 04-五月 | 14:00 | MVFR | 280° | 10 kt | 8000 meters |
14° | 57° | 13° | 55° | 94% | 1013 mb | -6 ft | |||
| 04-五月 | 13:30 | IFR | 270° | 10 kt | 4800 meters |
16° | 60° | 14° | 57° | 88% | 1012 mb | 264 ft | |||
| 04-五月 | 13:00 | VFR | 280° | 6 kt | 10000 meters | 16° | 60° | 14° | 57° | 88% | 1012 mb | 264 ft | |||
| 04-五月 | 12:30 | VFR | 290° | 8 kt | 10000 meters | 17° | 62° | 13° | 55° | 77% | 1012 mb | 384 ft | |||
| 04-五月 | 12:00 | VFR | 290° | 7 kt | 10000 meters | 17° | 62° | 14° | 57° | 82% | 1012 mb | 384 ft | |||
| 04-五月 | 11:30 | VFR | 240° | 7 kt | 10000 meters | 17° | 62° | 15° | 59° | 88% | 1012 mb | 384 ft | |||
| 04-五月 | 11:00 | VFR | 230° | 8 kt | 10000 meters | 16° | 60° | 13° | 55° | 82% | 1012 mb | 264 ft | |||
| 04-五月 | 10:30 | VFR | 240° | 9 kt | 10000 meters | 16° | 60° | 14° | 57° | 88% | 1012 mb | 264 ft |
登入
| 您的瀏覽器不支援. 升級您的瀏覽器 |
